Location: Gollag?dem
(16.8053°N, 80.8024°E)
Time: 05:22:25
(UTC+00:00)

NOSS 3-2 (C) - Visible Passes

Search period start: 26 November 2020 00:00
Search period end: 06 December 2020 00:00
Orbit: 788 x 1424 km, 63.4° (Epoch: 23 November)

Date Brightness Start Highest point End Pass type
(mag) Time Alt. Az. Time Alt. Az. Time Alt. Az.
26 Nov 4.3 12:43:22 10° SSE 12:47:26 22° ESE 12:50:08 16° ENE visible
26 Nov 4.9 14:33:30 10° WSW 14:37:38 26° WNW 14:37:38 26° WNW visible
26 Nov 6.6 22:21:37 10° NE 22:23:31 11° NE 22:25:27 10° ENE visible
27 Nov 4.5 00:06:53 10° NNW 00:15:15 74° ENE 00:24:02 10° SSE visible
27 Nov 3.7 13:47:57 10° SW 13:53:07 52° WNW 13:55:12 34° N visible
27 Nov 5.2 23:22:32 10° N 23:30:26 46° ENE 23:38:43 10° SE visible
28 Nov 3.0 13:03:10 10° SSW 13:08:27 75° ESE 13:12:45 17° NNE visible
28 Nov 5.8 22:38:40 10° N 22:45:30 28° ENE 22:52:39 10° ESE visible
29 Nov 3.8 12:19:07 10° S 12:23:54 35° ESE 12:28:54 10° NE visible
29 Nov 5.5 14:11:12 10° W 14:14:40 17° WNW 14:17:46 12° NNW visible
29 Nov 6.3 21:55:40 10° NNE 22:00:26 16° ENE 22:05:21 10° E visible
29 Nov 4.3 23:43:28 10° NNW 23:51:53 84° WSW 00:00:42 10° SSE visible
30 Nov 4.6 13:24:58 10° SW 13:29:46 34° WNW 13:34:52 10° N visible
30 Nov 4.6 23:00:15 16° NNW 23:07:07 62° ENE 23:15:46 10° SE visible
01 Dec 3.4 12:39:44 10° SSW 12:45:01 70° WNW 12:50:38 10° NNE visible
01 Dec 5.3 22:17:54 23° NNE 22:22:15 38° ENE 22:30:11 10° SE visible
02 Dec 4.8 00:05:33 10° NW 00:13:11 38° WSW 00:21:05 10° S visible
02 Dec 5.9 13:50:02 10° WNW 13:51:30 11° NW 13:53:00 10° NW visible
02 Dec 5.9 21:35:35 21° NE 21:37:17 23° ENE 21:43:44 10° ESE visible
02 Dec 4.3 23:23:06 24° NW 23:28:30 63° WSW 23:37:10 10° SSE visible
03 Dec 5.3 13:02:20 10° WSW 13:06:28 22° WNW 13:10:51 10° N visible
03 Dec 6.5 20:53:18 12° ENE 20:53:18 12° ENE 20:55:31 10° E visible
03 Dec 4.2 22:40:49 47° NNW 22:43:46 82° ENE 22:52:36 10° SSE visible
04 Dec 4.7 21:58:32 51° NE 21:58:58 51° ENE 22:07:25 10° SE visible
04 Dec 5.1 23:46:03 20° WNW 23:49:45 27° WSW 23:56:48 10° SSW visible
05 Dec 5.7 21:16:14 28° E 21:16:14 28° E 21:21:31 10° ESE visible
05 Dec 4.5 23:03:45 43° W 23:05:06 46° WSW 23:13:22 10° S visible
